SCP
0 0 0 0 0 0 0 0 0 0 0 0 0 0 0 0 0 0 0 0 -0 -0 -0 -0 -0 -0 -0 -0 -0 -0 -0 -0 -0 -0 -0 -0 -0 -0 -0 -0 -0 -0 -0 -0 -0 -0 -0 -0 -0
0 0 0 0 0 0 0 0 0 0 0 0 0 0 0 1 0 0 0 0 -0 -0 0 -0 -0 -0 -1 -0 -0 -0 -0 -0 0 -0 -0 -0 -0 -0 -0 -0 -0 -0 -0 -0 -0 -0 -0 -0 -0
0 0 0 0 0 0 0 0 0 0 -0 0 0 0 0 0 0 0 0 0 0 0 0 0 -0 -0 -1 -0 -0 -0 -0 0 0 0 0 -0 -0 -0 -0 -0 -0 -0 -0 -0 -0 -0 -0 -0 -0
0 0 0 0 0 0 0 0 0 0 0 0 0 0 0 0 0 0 0 0 1 1 0 0 -0 -0 -0 -0 -0 -0 -0 -0 0 0 0 0 -0 -0 -0 -0 -0 -0 -0 -0 -0 -0 -0 -0 -0
0 0 0 0 0 0 0 0 0 0 0 0 0 0 1 1 0 0 1 1 1 1 1 1 -0 -0 -0 -0 -0 -0 -0 0 0 0 0 0 -0 -0 -0 -0 -0 -0 -0 -0 -0 -0 -0 -0 -0
0 0 0 0 0 0 0 -0 0 0 0 0 0 1 1 0 1 1 1 1 1 1 2 1 0 0 -0 -0 -0 -0 0 0 0 0 0 0 0 -0 -0 -0 -0 -0 -0 -0 -0 -0 -0 -0 -0
0 0 0 0 0 0 0 0 0 0 0 0 0 2 1 1 0 1 1 2 2 2 2 1 1 0 0 0 0 0 0 0 0 0 0 0 0 -0 -0 -0 -0 -0 -0 -0 -0 -0 -0 -0 -0
0 0 0 0 0 0 0 0 0 0 0 0 0 1 2 1 1 1 2 2 2 2 2 1 0 0 0 0 0 0 0 0 0 0 0 0 0 0 0 -0 -0 -0 -0 -0 -0 -0 -0 -0 -0
0 0 0 0 0 0 0 0 0 0 0 0 0 1 1 1 1 1 1 1 1 1 1 1 0 0 0 0 0 0 0 0 0 0 0 0 0 0 0 0 -0 -0 -0 -0 -0 -0 -0 -0 -0
0 0 0 0 0 0 0 0 0 0 0 0 2 2 1 1 1 1 1 1 0 1 1 0 0 0 0 0 0 0 0 0 0 0 0 0 0 0 0 0 -0 -0 0 -0 -0 -0 -0 -0 0
0 0 0 0 0 0 0 0 0 0 0 0 0 1 1 1 1 1 1 1 0 1 1 0 0 0 0 0 0 0 0 0 0 0 0 0 0 0 0 0 0 0 0 0 0 0 0 0 0
0 0 0 0 0 0 0 0 0 0 0 0 1 1 1 1 1 1 0 1 1 0 0 0 0 0 0 0 0 0 0 0 0 0 0 0 0 0 0 0 0 0 0 0 0 0 0 0 0
0 0 0 0 0 0 0 0 0 0 0 0 1 1 1 1 1 1 1 1 1 0 0 0 0 0 0 0 0 0 0 0 0 0 0 0 0 0 0 0 0 0 0 0 0 0 0 0 0
0 0 0 0 0 0 0 0 0 0 0 0 0 1 1 1 1 1 1 1 1 0 0 0 0 0 0 0 0 0 0 0 0 0 0 0 0 0 0 0 0 0 0 0 0 0 0 0 0
0 0 0 0 0 0 0 0 0 0 0 0 0 0 1 1 1 1 1 1 1 1 0 0 0 0 0 0 0 0 0 0 0 0 0 0 0 0 0 0 0 0 0 0 0 0 0 0 0
0 0 0 0 0 0 0 0 0 0 0 0 0 0 0 1 1 1 1 1 1 1 0 0 0 0 0 0 0 0 0 0 0 0 0 0 0 0 0 0 0 0 0 0 0 0 0 0 0
0 0 0 0 0 0 0 0 0 0 0 0 0 0 0 0 1 0 1 1 1 1 0 0 0 0 0 0 0 0 0 0 0 0 0 0 0 0 0 0 0 0 0 0 0 0 0 0 0
0 0 0 0 0 0 0 0 0 0 0 0 0 0 0 0 0 1 1 1 1 1 0 0 0 0 0 0 0 0 0 0 0 0 0 0 0 0 0 0 0 0 0 0 0 0 0 0 0
0 0 0 0 0 0 0 0 0 0 0 0 0 0 0 0 0 0 1 1 1 0 0 0 0 0 0 0 0 0 0 0 0 0 0 0 0 0 0 0 0 0 0 0 0 0 0 0 0
0 0 0 0 0 0 0 0 0 0 0 0 0 0 0 0 0 0 1 1 1 0 0 0 0 0 0 0 0 0 0 0 0 0 0 0 0 0 0 0 0 0 0 0 0 0 0 0 0
0 0 0 0 -0 0 0 0 0 0 0 0 0 0 0 0 0 0 0 1 1 0 0 0 0 0 0 0 0 0 0 0 0 0 0 0 0 0 0 0 0 0 0 0 0 0 0 0 0
0 0 0 0 0 0 -0 0 0 0 0 0 0 0 0 0 0 0 0 1 1 0 0 0 0 0 0 0 0 0 0 0 0 0 0 0 0 0 0 0 0 0 0 0 0 0 0 0 0
0 0 0 0 0 0 -0 -0 0 0 0 0 0 0 0 0 0 0 0 0 1 1 1 0 0 0 0 0 0 0 0 0 0 0 0 0 0 0 0 0 0 0 0 0 0 0 0 0 0
0 0 0 0 0 0 -0 0 -0 -0 0 0 0 0 0 0 0 0 0 0 0 1 1 0 0 0 0 0 0 0 0 0 0 0 0 0 0 0 0 0 0 0 0 0 0 0 0 0 0
0 0 0 0 0 0 0 -0 0 0 0 0 0 0 0 0 0 0 0 0 0 0 0 0 0 0 0 0 0 0 0 0 0 0 0 0 0 0 0 0 0 0 0 0 0 0 0 0 0
0 0 0 0 0 0 0 0 0 0 0 0 0 0 0 0 0 0 0 0 0 0 0 1 0 0 0 0 0 0 0 0 0 0 0 0 0 0 0 0 0 0 0 0 0 0 0 0 0
0 0 0 0 0 0 0 0 0 0 0 0 0 0 0 0 0 0 0 0 0 1 0 0 0 0 0 0 0 0 0 0 0 0 0 0 0 0 0 0 0 0 0 0 0 0 0 0 0
0 0 0 0 0 0 0 0 0 0 0 0 0 0 0 0 0 0 0 0 0 1 1 1 1 0 0 0 0 0 0 0 0 0 0 0 0 0 0 0 0 0 0 0 0 0 0 0 0
-0 0 0 0 0 0 0 0 0 0 0 0 0 0 0 0 0 0 0 0 1 1 1 1 0 0 0 0 0 0 0 0 0 0 0 0 0 0 0 0 0 0 0 0 0 0 0 0 0
-0 0 0 0 0 -0 0 0 0 0 0 0 0 0 0 0 0 0 0 0 0 0 0 1 0 0 0 0 0 0 0 0 0 0 0 0 0 0 0 0 0 0 0 0 0 0 0 0 0
Wind_Speed_500mb
12 20 32 15 4 2 11 16 8 12 8 17 27 11 6 6 10 8 24 44 54 75 72 64 59 56 52 51 48 39 27 18 20 29 31 25 30 29 30 27 32 30 33 36 37 39 46 41 40
26 27 32 10 5 9 10 13 25 31 26 23 32 11 4 4 11 17 52 30 61 73 72 68 63 58 55 56 46 37 26 18 19 25 34 36 38 38 36 39 36 35 38 38 46 48 48 43 41
31 32 17 9 9 13 11 17 41 41 34 33 14 4 13 21 27 49 31 46 64 70 71 69 64 61 57 53 44 35 25 18 22 32 42 43 39 41 43 40 36 42 43 47 59 56 43 44 37
22 15 5 6 16 13 14 12 4 3 28 42 44 4 9 15 48 40 40 52 63 66 71 68 65 61 58 52 43 33 24 20 28 42 43 43 44 42 44 40 39 47 45 51 58 53 46 42 37
25 8 5 8 12 12 15 39 44 16 12 33 18 14 10 43 29 37 46 53 59 68 70 66 65 61 56 49 42 33 24 21 34 45 45 44 44 46 45 41 45 47 47 49 56 53 47 40 38
11 5 5 12 14 11 14 67 29 18 39 60 11 16 16 33 38 44 46 57 51 62 72 68 62 59 54 48 41 32 25 24 44 48 45 41 45 45 44 41 50 50 52 50 59 54 50 45 42
13 8 10 9 10 10 26 38 17 21 28 35 21 15 16 44 48 56 62 59 52 66 72 65 60 56 54 48 40 33 29 33 48 48 48 44 46 46 44 41 50 52 55 56 57 49 43 41 45
15 7 8 12 13 20 18 14 19 29 34 42 28 15 16 60 68 65 61 57 56 69 70 67 63 59 56 49 42 35 30 40 51 47 49 46 48 45 45 43 49 54 55 54 52 50 45 47 47
22 7 18 19 21 17 12 13 48 40 34 17 17 28 51 73 77 73 70 66 66 64 62 65 68 60 57 52 45 36 40 49 49 45 49 50 50 49 48 47 49 58 58 52 51 48 48 45 36
16 11 25 18 29 15 20 13 12 13 19 4 18 21 59 76 81 85 83 81 79 75 66 70 67 61 56 54 48 46 48 54 52 50 51 49 52 51 50 49 52 66 64 53 49 43 38 35 35
21 40 21 19 32 42 27 9 18 19 14 31 41 50 74 76 81 85 86 84 86 79 70 71 69 67 66 60 53 52 51 58 54 49 50 52 50 45 49 52 60 74 71 59 47 42 34 35 32
24 49 50 10 51 31 14 23 17 35 32 40 54 62 73 76 73 80 84 85 86 82 74 75 77 72 67 59 54 55 53 58 55 50 52 52 49 43 45 53 68 76 73 64 52 42 35 30 26
48 42 37 62 59 50 33 23 19 31 45 27 50 66 66 70 75 76 81 79 80 82 76 76 79 75 70 64 56 56 57 57 55 55 53 50 48 49 51 60 67 73 73 66 56 46 37 30 27
11 60 60 60 46 64 45 35 20 33 50 46 54 69 70 76 73 74 78 80 80 79 78 76 80 76 70 68 61 61 60 55 58 57 53 47 47 53 59 64 68 70 68 63 53 45 38 33 29
67 55 36 41 68 31 36 34 61 45 32 52 58 55 66 76 77 82 84 86 83 82 77 84 80 79 74 69 65 62 63 60 65 57 52 43 48 57 61 64 65 61 57 53 47 41 38 35 31
26 32 54 75 32 40 30 63 51 59 45 46 59 46 58 66 75 81 87 89 83 84 89 87 81 80 78 73 62 58 63 65 65 56 52 43 48 58 62 63 62 57 53 50 46 43 41 38 35
30 44 48 49 28 19 43 66 43 45 64 54 52 58 46 57 70 72 81 90 88 86 92 95 90 88 83 76 64 56 62 68 67 57 54 48 52 59 59 59 59 57 56 53 49 45 40 42 40
27 33 52 47 24 35 41 65 32 48 58 62 69 71 68 68 76 77 79 85 85 87 92 98 97 91 85 80 71 63 65 67 62 61 57 52 58 61 59 56 57 58 59 57 52 47 42 37 39
57 62 40 50 25 38 47 55 44 26 37 28 54 60 69 74 71 81 82 81 84 85 91 101 102 98 92 91 87 76 78 76 67 65 62 58 61 61 60 59 57 58 59 59 56 53 49 47 43
35 38 59 51 38 31 43 58 53 38 42 52 51 59 71 70 65 72 93 90 91 86 92 99 104 107 98 98 90 76 77 79 73 68 66 60 58 58 60 62 62 59 59 58 58 57 57 49 46
31 28 27 33 29 20 17 43 48 38 48 60 61 75 69 73 77 79 88 96 90 92 93 102 104 107 105 101 91 92 86 86 80 73 68 64 61 59 62 64 63 63 61 60 57 55 52 55 49
33 25 34 33 26 27 25 24 39 44 41 44 61 61 67 67 76 84 93 94 96 95 91 96 104 107 106 106 107 98 95 92 87 81 76 73 67 61 63 64 65 63 62 59 55 52 47 45 44
30 41 31 33 29 31 41 13 6 16 47 43 48 78 78 76 75 87 92 99 100 95 94 89 103 106 112 110 110 93 97 84 87 85 80 79 73 66 69 67 66 65 62 57 55 52 47 41 38
37 25 34 31 17 25 26 20 22 10 39 49 49 67 56 71 77 79 90 99 99 99 100 93 97 117 112 114 108 106 100 93 88 86 84 82 76 73 72 72 68 64 63 61 57 52 47 40 35
14 7 6 14 15 21 14 19 17 10 18 38 35 53 66 70 74 79 82 95 103 95 103 100 99 105 109 116 114 108 102 93 90 87 91 89 84 81 79 76 73 69 64 62 59 53 47 42 38
43 14 8 9 14 22 12 13 9 32 27 28 35 57 65 71 77 73 86 92 102 102 95 93 98 97 104 109 111 111 107 98 97 91 93 89 90 88 82 78 75 72 69 64 60 54 48 44 38
8 10 8 13 6 13 14 7 6 10 14 16 15 27 46 61 73 84 80 89 93 106 100 94 93 97 94 110 111 107 111 100 102 88 81 88 91 85 82 80 77 74 71 68 62 55 51 45 38
19 17 7 13 15 9 13 17 16 32 25 18 11 13 31 50 72 81 92 93 94 105 107 102 106 99 94 102 108 108 105 117 92 93 92 90 98 89 88 84 79 74 70 67 64 58 51 46 40
12 7 9 12 5 9 9 7 11 21 37 28 19 9 22 17 48 72 82 92 94 90 92 98 91 96 93 106 109 107 110 116 101 92 96 93 83 90 89 87 83 78 75 71 66 61 54 47 42
17 8 5 10 15 8 8 7 26 11 29 38 18 30 45 47 36 41 58 73 84 90 90 91 94 97 95 105 104 105 109 108 106 99 94 87 87 90 87 84 83 80 77 72 67 62 56 50 43
Wind_Direction_500mb
195 191 187 172 126 157 221 240 271 266 293 227 267 255 155 63 149 215 151 161 172 167 170 167 161 163 166 166 170 164 163 161 155 149 143 144 132 130 127 127 123 122 119 119 117 116 119 117 118
158 161 163 173 178 212 228 227 233 226 218 275 304 193 137 131 151 153 152 155 169 168 171 166 164 168 171 174 172 164 167 167 162 154 139 133 136 134 130 128 124 122 117 119 124 121 123 130 128
164 166 161 155 208 208 215 218 228 237 246 279 293 267 175 158 178 157 171 155 170 170 171 167 169 172 177 177 171 169 170 169 156 142 136 138 139 136 134 133 129 124 121 122 123 127 131 128 133
169 174 201 189 217 246 218 237 219 218 257 259 259 206 161 170 160 173 157 155 171 172 171 168 171 177 178 175 174 174 178 173 153 142 140 140 140 136 138 135 127 127 123 126 131 134 134 126 122
175 190 198 235 241 251 237 251 270 267 284 264 262 182 149 153 172 170 160 161 173 173 172 173 175 180 180 177 177 180 185 176 158 144 142 140 141 138 141 134 132 130 126 122 128 136 132 127 120
196 222 197 221 228 233 249 254 242 232 252 266 264 144 139 183 176 172 166 169 176 175 172 175 180 179 181 179 181 186 189 175 149 145 145 143 143 138 139 134 132 132 127 128 134 135 131 132 127
171 155 229 225 221 227 240 251 206 238 240 250 223 136 144 161 174 171 172 171 171 178 174 175 180 182 179 180 185 191 188 172 150 148 150 149 144 140 137 139 137 136 133 137 136 138 138 138 134
206 153 218 220 200 246 228 210 216 220 249 245 192 171 167 162 167 170 172 167 166 177 176 179 184 184 178 181 186 191 186 156 156 153 154 149 143 142 140 139 140 141 140 142 142 138 140 143 141
204 234 222 204 200 231 242 203 250 241 239 199 165 167 179 164 168 172 168 164 165 174 185 188 185 186 181 182 182 186 161 159 156 163 155 150 148 149 145 146 140 144 144 143 147 149 148 145 150
192 222 223 211 213 218 239 191 213 167 193 143 147 166 170 168 173 172 171 169 172 175 187 193 192 189 186 186 180 176 177 159 163 169 163 159 159 155 152 146 144 147 143 145 148 157 149 144 139
214 236 229 232 238 240 266 280 240 197 219 179 170 158 169 174 175 176 178 181 183 187 188 192 197 195 189 188 186 181 176 168 170 177 167 164 167 163 158 150 148 149 151 147 149 148 151 143 129
246 235 244 249 238 250 230 257 235 219 221 208 201 180 177 184 187 187 181 184 186 190 192 192 195 197 194 194 195 188 183 175 180 176 171 171 171 165 156 151 151 156 157 155 159 157 149 143 138
233 232 223 235 243 246 250 255 250 250 224 193 183 182 187 191 193 199 195 194 196 194 195 195 195 199 197 195 196 192 192 185 182 177 172 173 173 167 160 156 156 159 162 165 169 168 164 161 151
257 237 243 246 238 239 242 252 240 242 237 206 178 188 191 192 197 195 197 198 200 201 198 201 199 203 201 199 197 200 198 192 185 179 175 175 179 172 166 163 161 163 167 170 174 173 170 165 159
256 262 263 244 235 224 225 250 234 231 240 223 213 196 199 202 201 201 200 202 204 206 203 199 201 204 201 202 200 203 201 191 186 183 179 179 183 178 174 170 167 168 170 174 177 176 171 164 157
269 241 247 247 231 231 191 257 239 220 210 221 220 206 200 209 212 210 205 203 204 207 204 204 204 205 202 199 201 206 202 190 190 187 184 187 189 184 179 177 174 175 178 182 182 178 168 160 154
237 253 242 266 231 207 205 248 239 218 208 225 228 227 217 211 216 218 215 207 205 209 209 201 204 204 201 198 197 206 203 192 193 192 190 194 195 189 187 184 182 182 181 182 182 177 177 164 156
254 240 246 258 243 219 222 241 231 216 209 215 222 232 228 220 218 218 212 210 210 211 211 205 202 205 199 196 196 203 197 192 194 198 197 200 196 193 191 190 187 182 179 180 181 179 177 171 161
252 261 260 254 245 243 231 237 228 209 214 206 221 229 230 230 222 216 215 210 209 213 213 203 202 204 198 194 196 193 194 193 196 203 202 203 198 195 193 195 191 186 184 181 180 177 175 170 169
284 273 262 267 278 281 243 240 233 219 222 209 212 224 228 227 220 220 218 212 208 211 212 205 204 202 202 199 198 203 200 196 198 202 205 205 201 198 196 197 195 191 186 184 183 184 176 175 173
295 277 287 278 270 264 286 256 239 220 224 213 210 220 224 220 214 215 215 213 209 211 212 207 200 206 203 199 196 194 193 193 194 199 205 206 204 203 200 198 198 194 193 190 189 190 190 181 178
278 273 278 269 284 251 201 268 237 223 218 215 215 213 222 220 215 210 212 211 213 211 210 211 204 205 199 203 199 200 196 195 198 201 204 204 205 204 201 198 197 196 195 196 193 196 196 194 187
271 272 269 268 262 274 237 245 278 206 219 216 212 217 218 222 215 208 209 214 213 212 211 214 207 199 206 201 207 211 200 199 203 201 201 203 203 204 200 198 197 198 197 198 196 193 197 201 206
252 270 268 259 236 245 253 215 239 200 225 213 209 214 209 210 217 213 209 213 215 214 212 211 209 203 202 201 207 205 203 201 203 203 202 203 204 200 201 198 198 199 199 198 196 195 195 203 210
32 331 247 203 202 234 222 206 253 220 234 223 203 201 201 206 212 207 202 209 212 209 211 207 209 206 212 202 207 209 209 211 208 202 205 203 202 200 198 198 196 196 197 197 195 194 196 196 197
292 227 261 213 190 200 235 213 217 228 229 231 246 211 210 213 212 206 206 208 209 207 209 209 206 207 209 212 203 204 212 210 212 209 206 206 203 201 197 199 198 196 194 193 194 194 194 196 198
325 215 273 267 270 172 185 192 276 195 218 225 240 238 222 214 215 219 208 204 204 203 206 205 209 208 211 209 208 209 206 213 211 210 209 207 208 205 201 198 198 198 197 195 195 196 194 196 197
296 329 306 192 172 180 202 184 208 188 202 218 212 241 212 224 215 209 211 207 207 206 204 204 209 209 209 203 211 210 207 208 218 207 209 211 210 205 204 199 200 201 200 197 195 194 197 198 197
332 8 330 281 257 167 159 206 354 232 184 197 147 180 119 170 196 193 203 204 202 202 206 206 207 207 208 203 208 212 212 213 216 211 215 211 211 211 205 202 199 200 199 198 197 197 197 200 202
333 4 339 340 342 305 351 89 6 80 115 114 128 94 88 84 94 186 194 199 201 201 201 207 207 207 208 200 209 211 212 210 210 210 212 214 215 210 207 204 201 199 199 200 199 199 198 201 202
Wind_Speed_850mb
12 20 32 15 4 2 11 16 8 12 8 17 27 11 6 6 10 8 24 44 54 75 72 64 59 56 52 51 48 39 27 18 20 29 31 25 30 29 30 27 32 30 33 36 37 39 46 41 40
26 27 32 10 5 9 10 13 25 31 26 23 32 11 4 4 11 17 52 30 61 73 72 68 63 58 55 56 46 37 26 18 19 25 34 36 38 38 36 39 36 35 38 38 46 48 48 43 41
31 32 17 9 9 13 11 17 41 41 34 33 14 4 13 21 27 49 31 46 64 70 71 69 64 61 57 53 44 35 25 18 22 32 42 43 39 41 43 40 36 42 43 47 59 56 43 44 37
22 15 5 6 16 13 14 12 4 3 28 42 44 4 9 15 48 40 40 52 63 66 71 68 65 61 58 52 43 33 24 20 28 42 43 43 44 42 44 40 39 47 45 51 58 53 46 42 37
25 8 5 8 12 12 15 39 44 16 12 33 18 14 10 43 29 37 46 53 59 68 70 66 65 61 56 49 42 33 24 21 34 45 45 44 44 46 45 41 45 47 47 49 56 53 47 40 38
11 5 5 12 14 11 14 67 29 18 39 60 11 16 16 33 38 44 46 57 51 62 72 68 62 59 54 48 41 32 25 24 44 48 45 41 45 45 44 41 50 50 52 50 59 54 50 45 42
13 8 10 9 10 10 26 38 17 21 28 35 21 15 16 44 48 56 62 59 52 66 72 65 60 56 54 48 40 33 29 33 48 48 48 44 46 46 44 41 50 52 55 56 57 49 43 41 45
15 7 8 12 13 20 18 14 19 29 34 42 28 15 16 60 68 65 61 57 56 69 70 67 63 59 56 49 42 35 30 40 51 47 49 46 48 45 45 43 49 54 55 54 52 50 45 47 47
22 7 18 19 21 17 12 13 48 40 34 17 17 28 51 73 77 73 70 66 66 64 62 65 68 60 57 52 45 36 40 49 49 45 49 50 50 49 48 47 49 58 58 52 51 48 48 45 36
16 11 25 18 29 15 20 13 12 13 19 4 18 21 59 76 81 85 83 81 79 75 66 70 67 61 56 54 48 46 48 54 52 50 51 49 52 51 50 49 52 66 64 53 49 43 38 35 35
21 40 21 19 32 42 27 9 18 19 14 31 41 50 74 76 81 85 86 84 86 79 70 71 69 67 66 60 53 52 51 58 54 49 50 52 50 45 49 52 60 74 71 59 47 42 34 35 32
24 49 50 10 51 31 14 23 17 35 32 40 54 62 73 76 73 80 84 85 86 82 74 75 77 72 67 59 54 55 53 58 55 50 52 52 49 43 45 53 68 76 73 64 52 42 35 30 26
48 42 37 62 59 50 33 23 19 31 45 27 50 66 66 70 75 76 81 79 80 82 76 76 79 75 70 64 56 56 57 57 55 55 53 50 48 49 51 60 67 73 73 66 56 46 37 30 27
11 60 60 60 46 64 45 35 20 33 50 46 54 69 70 76 73 74 78 80 80 79 78 76 80 76 70 68 61 61 60 55 58 57 53 47 47 53 59 64 68 70 68 63 53 45 38 33 29
67 55 36 41 68 31 36 34 61 45 32 52 58 55 66 76 77 82 84 86 83 82 77 84 80 79 74 69 65 62 63 60 65 57 52 43 48 57 61 64 65 61 57 53 47 41 38 35 31
26 32 54 75 32 40 30 63 51 59 45 46 59 46 58 66 75 81 87 89 83 84 89 87 81 80 78 73 62 58 63 65 65 56 52 43 48 58 62 63 62 57 53 50 46 43 41 38 35
30 44 48 49 28 19 43 66 43 45 64 54 52 58 46 57 70 72 81 90 88 86 92 95 90 88 83 76 64 56 62 68 67 57 54 48 52 59 59 59 59 57 56 53 49 45 40 42 40
27 33 52 47 24 35 41 65 32 48 58 62 69 71 68 68 76 77 79 85 85 87 92 98 97 91 85 80 71 63 65 67 62 61 57 52 58 61 59 56 57 58 59 57 52 47 42 37 39
57 62 40 50 25 38 47 55 44 26 37 28 54 60 69 74 71 81 82 81 84 85 91 101 102 98 92 91 87 76 78 76 67 65 62 58 61 61 60 59 57 58 59 59 56 53 49 47 43
35 38 59 51 38 31 43 58 53 38 42 52 51 59 71 70 65 72 93 90 91 86 92 99 104 107 98 98 90 76 77 79 73 68 66 60 58 58 60 62 62 59 59 58 58 57 57 49 46
31 28 27 33 29 20 17 43 48 38 48 60 61 75 69 73 77 79 88 96 90 92 93 102 104 107 105 101 91 92 86 86 80 73 68 64 61 59 62 64 63 63 61 60 57 55 52 55 49
33 25 34 33 26 27 25 24 39 44 41 44 61 61 67 67 76 84 93 94 96 95 91 96 104 107 106 106 107 98 95 92 87 81 76 73 67 61 63 64 65 63 62 59 55 52 47 45 44
30 41 31 33 29 31 41 13 6 16 47 43 48 78 78 76 75 87 92 99 100 95 94 89 103 106 112 110 110 93 97 84 87 85 80 79 73 66 69 67 66 65 62 57 55 52 47 41 38
37 25 34 31 17 25 26 20 22 10 39 49 49 67 56 71 77 79 90 99 99 99 100 93 97 117 112 114 108 106 100 93 88 86 84 82 76 73 72 72 68 64 63 61 57 52 47 40 35
14 7 6 14 15 21 14 19 17 10 18 38 35 53 66 70 74 79 82 95 103 95 103 100 99 105 109 116 114 108 102 93 90 87 91 89 84 81 79 76 73 69 64 62 59 53 47 42 38
43 14 8 9 14 22 12 13 9 32 27 28 35 57 65 71 77 73 86 92 102 102 95 93 98 97 104 109 111 111 107 98 97 91 93 89 90 88 82 78 75 72 69 64 60 54 48 44 38
8 10 8 13 6 13 14 7 6 10 14 16 15 27 46 61 73 84 80 89 93 106 100 94 93 97 94 110 111 107 111 100 102 88 81 88 91 85 82 80 77 74 71 68 62 55 51 45 38
19 17 7 13 15 9 13 17 16 32 25 18 11 13 31 50 72 81 92 93 94 105 107 102 106 99 94 102 108 108 105 117 92 93 92 90 98 89 88 84 79 74 70 67 64 58 51 46 40
12 7 9 12 5 9 9 7 11 21 37 28 19 9 22 17 48 72 82 92 94 90 92 98 91 96 93 106 109 107 110 116 101 92 96 93 83 90 89 87 83 78 75 71 66 61 54 47 42
17 8 5 10 15 8 8 7 26 11 29 38 18 30 45 47 36 41 58 73 84 90 90 91 94 97 95 105 104 105 109 108 106 99 94 87 87 90 87 84 83 80 77 72 67 62 56 50 43
Wind_Direction_850mb
195 191 187 172 126 157 221 240 271 266 293 227 267 255 155 63 149 215 151 161 172 167 170 167 161 163 166 166 170 164 163 161 155 149 143 144 132 130 127 127 123 122 119 119 117 116 119 117 118
158 161 163 173 178 212 228 227 233 226 218 275 304 193 137 131 151 153 152 155 169 168 171 166 164 168 171 174 172 164 167 167 162 154 139 133 136 134 130 128 124 122 117 119 124 121 123 130 128
164 166 161 155 208 208 215 218 228 237 246 279 293 267 175 158 178 157 171 155 170 170 171 167 169 172 177 177 171 169 170 169 156 142 136 138 139 136 134 133 129 124 121 122 123 127 131 128 133
169 174 201 189 217 246 218 237 219 218 257 259 259 206 161 170 160 173 157 155 171 172 171 168 171 177 178 175 174 174 178 173 153 142 140 140 140 136 138 135 127 127 123 126 131 134 134 126 122
175 190 198 235 241 251 237 251 270 267 284 264 262 182 149 153 172 170 160 161 173 173 172 173 175 180 180 177 177 180 185 176 158 144 142 140 141 138 141 134 132 130 126 122 128 136 132 127 120
196 222 197 221 228 233 249 254 242 232 252 266 264 144 139 183 176 172 166 169 176 175 172 175 180 179 181 179 181 186 189 175 149 145 145 143 143 138 139 134 132 132 127 128 134 135 131 132 127
171 155 229 225 221 227 240 251 206 238 240 250 223 136 144 161 174 171 172 171 171 178 174 175 180 182 179 180 185 191 188 172 150 148 150 149 144 140 137 139 137 136 133 137 136 138 138 138 134
206 153 218 220 200 246 228 210 216 220 249 245 192 171 167 162 167 170 172 167 166 177 176 179 184 184 178 181 186 191 186 156 156 153 154 149 143 142 140 139 140 141 140 142 142 138 140 143 141
204 234 222 204 200 231 242 203 250 241 239 199 165 167 179 164 168 172 168 164 165 174 185 188 185 186 181 182 182 186 161 159 156 163 155 150 148 149 145 146 140 144 144 143 147 149 148 145 150
192 222 223 211 213 218 239 191 213 167 193 143 147 166 170 168 173 172 171 169 172 175 187 193 192 189 186 186 180 176 177 159 163 169 163 159 159 155 152 146 144 147 143 145 148 157 149 144 139
214 236 229 232 238 240 266 280 240 197 219 179 170 158 169 174 175 176 178 181 183 187 188 192 197 195 189 188 186 181 176 168 170 177 167 164 167 163 158 150 148 149 151 147 149 148 151 143 129
246 235 244 249 238 250 230 257 235 219 221 208 201 180 177 184 187 187 181 184 186 190 192 192 195 197 194 194 195 188 183 175 180 176 171 171 171 165 156 151 151 156 157 155 159 157 149 143 138
233 232 223 235 243 246 250 255 250 250 224 193 183 182 187 191 193 199 195 194 196 194 195 195 195 199 197 195 196 192 192 185 182 177 172 173 173 167 160 156 156 159 162 165 169 168 164 161 151
257 237 243 246 238 239 242 252 240 242 237 206 178 188 191 192 197 195 197 198 200 201 198 201 199 203 201 199 197 200 198 192 185 179 175 175 179 172 166 163 161 163 167 170 174 173 170 165 159
256 262 263 244 235 224 225 250 234 231 240 223 213 196 199 202 201 201 200 202 204 206 203 199 201 204 201 202 200 203 201 191 186 183 179 179 183 178 174 170 167 168 170 174 177 176 171 164 157
269 241 247 247 231 231 191 257 239 220 210 221 220 206 200 209 212 210 205 203 204 207 204 204 204 205 202 199 201 206 202 190 190 187 184 187 189 184 179 177 174 175 178 182 182 178 168 160 154
237 253 242 266 231 207 205 248 239 218 208 225 228 227 217 211 216 218 215 207 205 209 209 201 204 204 201 198 197 206 203 192 193 192 190 194 195 189 187 184 182 182 181 182 182 177 177 164 156
254 240 246 258 243 219 222 241 231 216 209 215 222 232 228 220 218 218 212 210 210 211 211 205 202 205 199 196 196 203 197 192 194 198 197 200 196 193 191 190 187 182 179 180 181 179 177 171 161
252 261 260 254 245 243 231 237 228 209 214 206 221 229 230 230 222 216 215 210 209 213 213 203 202 204 198 194 196 193 194 193 196 203 202 203 198 195 193 195 191 186 184 181 180 177 175 170 169
284 273 262 267 278 281 243 240 233 219 222 209 212 224 228 227 220 220 218 212 208 211 212 205 204 202 202 199 198 203 200 196 198 202 205 205 201 198 196 197 195 191 186 184 183 184 176 175 173
295 277 287 278 270 264 286 256 239 220 224 213 210 220 224 220 214 215 215 213 209 211 212 207 200 206 203 199 196 194 193 193 194 199 205 206 204 203 200 198 198 194 193 190 189 190 190 181 178
278 273 278 269 284 251 201 268 237 223 218 215 215 213 222 220 215 210 212 211 213 211 210 211 204 205 199 203 199 200 196 195 198 201 204 204 205 204 201 198 197 196 195 196 193 196 196 194 187
271 272 269 268 262 274 237 245 278 206 219 216 212 217 218 222 215 208 209 214 213 212 211 214 207 199 206 201 207 211 200 199 203 201 201 203 203 204 200 198 197 198 197 198 196 193 197 201 206
252 270 268 259 236 245 253 215 239 200 225 213 209 214 209 210 217 213 209 213 215 214 212 211 209 203 202 201 207 205 203 201 203 203 202 203 204 200 201 198 198 199 199 198 196 195 195 203 210
32 331 247 203 202 234 222 206 253 220 234 223 203 201 201 206 212 207 202 209 212 209 211 207 209 206 212 202 207 209 209 211 208 202 205 203 202 200 198 198 196 196 197 197 195 194 196 196 197
292 227 261 213 190 200 235 213 217 228 229 231 246 211 210 213 212 206 206 208 209 207 209 209 206 207 209 212 203 204 212 210 212 209 206 206 203 201 197 199 198 196 194 193 194 194 194 196 198
325 215 273 267 270 172 185 192 276 195 218 225 240 238 222 214 215 219 208 204 204 203 206 205 209 208 211 209 208 209 206 213 211 210 209 207 208 205 201 198 198 198 197 195 195 196 194 196 197
296 329 306 192 172 180 202 184 208 188 202 218 212 241 212 224 215 209 211 207 207 206 204 204 209 209 209 203 211 210 207 208 218 207 209 211 210 205 204 199 200 201 200 197 195 194 197 198 197
332 8 330 281 257 167 159 206 354 232 184 197 147 180 119 170 196 193 203 204 202 202 206 206 207 207 208 203 208 212 212 213 216 211 215 211 211 211 205 202 199 200 199 198 197 197 197 200 202
333 4 339 340 342 305 351 89 6 80 115 114 128 94 88 84 94 186 194 199 201 201 201 207 207 207 208 200 209 211 212 210 210 210 212 214 215 210 207 204 201 199 199 200 199 199 198 201 202